This is the latest recevied weather packets stored in our database for station/object XQ6AK-15. If no packets are shown the sender has not sent any weather packets the latest 1 day(s).
| Time | Temp. | Humidity | Pressure | Rain* | Wind** | Luminosity | Snow |
|---|---|---|---|---|---|---|---|
| 1778004713 | 12.78° C | 99% | 1004.6 hPa | 11.94 mm | 0 m/s | 55 W/m² | - |
| 1778004409 | 12.78° C | 99% | 1004.9 hPa | 11.94 mm | 0.45 m/s, 13° | 43 W/m² | - |
| 1778004107 | 12.78° C | 99% | 1005 hPa | 6.1 mm | 0.45 m/s, 13° | 39 W/m² | - |
| 1778003803 | 12.78° C | 99% | 1004.7 hPa | 6.1 mm | 0.45 m/s, 11° | 35 W/m² | - |
| 1778003499 | 12.78° C | 99% | 1004.7 hPa | 3.05 mm | 0.45 m/s, 0° | 53 W/m² | - |
| 1778003196 | 12.78° C | 99% | 1004.6 hPa | 6.1 mm | 0 m/s | 50 W/m² | - |
| 1778002892 | 12.78° C | 99% | 1004.8 hPa | 8.89 mm | 0 m/s | 34 W/m² | - |
| 1778002589 | 12.78° C | 99% | 1005.2 hPa | 9.65 mm | 0 m/s | 45 W/m² | - |
| 1778002286 | 12.78° C | 99% | 1005.5 hPa | 7.11 mm | 0.45 m/s, 309° | 38 W/m² | - |
| 1778001983 | 12.78° C | 99% | 1005.6 hPa | 6.1 mm | 0.45 m/s, 265° | 46 W/m² | - |
| 1778001681 | 12.78° C | 99% | 1005.8 hPa | 9.65 mm | 0 m/s | 39 W/m² | - |
| 1778001375 | 12.78° C | 99% | 1005.7 hPa | 4.83 mm | 0.45 m/s, 190° | 57 W/m² | - |
| 1778001072 | 12.78° C | 99% | 1005.9 hPa | 1.27 mm | 0 m/s | 34 W/m² | - |
| 1778000769 | 12.78° C | 99% | 1005.6 hPa | 1.78 mm | 0 m/s | 57 W/m² | - |
| 1778000466 | 12.78° C | 99% | 1005.6 hPa | 1.78 mm | 0.45 m/s, 2° | 59 W/m² | - |
| 1778000161 | 12.78° C | 99% | 1005.6 hPa | 0 mm | 0 m/s | 86 W/m² | - |
| 1777999857 | 12.22° C | 99% | 1005.6 hPa | 0 mm | 0.45 m/s, 31° | 91 W/m² | - |
| 1777999553 | 12.78° C | 99% | 1005.5 hPa | 1.27 mm | 0.45 m/s, 34° | 88 W/m² | - |
| 1777999251 | 12.78° C | 99% | 1005.5 hPa | 0 mm | 0 m/s | 90 W/m² | - |
| 1777998949 | 12.22° C | 99% | 1005.7 hPa | 1.78 mm | 0.89 m/s, 15° | 119 W/m² | - |
| 1777998645 | 12.22° C | 99% | 1006.1 hPa | 1.27 mm | 0.45 m/s, 57° | 101 W/m² | - |
| 1777998338 | 12.22° C | 99% | 1006.4 hPa | 1.78 mm | 0.45 m/s, 29° | 81 W/m² | - |
| 1777998036 | 12.22° C | 99% | 1006.3 hPa | 4.83 mm | 0.45 m/s, 246° | 93 W/m² | - |
| 1777997732 | 12.22° C | 99% | 1006 hPa | 6.6 mm | 0 m/s | 111 W/m² | - |
| 1777997429 | 11.67° C | 99% | 1006.4 hPa | 8.89 mm | 0.45 m/s, 67° | 85 W/m² | - |
* Rain latest hour (hover to see other rain measurements)
** Current wind speed in m/s (hover to see current wind gust speed)